| time (UTC) | temp F | wind direction | speed MPH | gust MPH | rain 1hr in | rain 24hr in | rain mn in | humidity % | barometer mb |
| 20260505011249 | 63 | 124 | 3.0 | 5.0 | 0.00 | 0.00 | 0.00 | 45 | 1006.9 |
| 20260505010744 | 64 | 138 | 3.0 | 7.0 | 0.00 | 0.00 | 0.00 | 45 | 1006.6 |
| 20260505010241 | 63 | 76 | 2.0 | 6.0 | 0.00 | 0.00 | 0.00 | 45 | 1006.6 |
| 20260505005737 | 64 | 182 | 2.0 | 9.0 | 0.00 | 0.00 | 0.00 | 45 | 1006.5 |
| 20260505005234 | 64 | 134 | 1.0 | 5.0 | 0.00 | 0.00 | 0.00 | 46 | 1006.5 |
| 20260505004732 | 64 | 146 | 8.0 | 11.0 | 0.00 | 0.00 | 0.00 | 44 | 1006.3 |
| 20260505004228 | 64 | 139 | 1.0 | 8.0 | 0.00 | 0.00 | 0.00 | 45 | 1006.3 |
| 20260505003725 | 64 | 142 | 3.0 | 12.0 | 0.00 | 0.00 | 0.00 | 45 | 1006.4 |
| 20260505003223 | 65 | 138 | 4.0 | 12.0 | 0.00 | 0.00 | 0.00 | 44 | 1006.5 |
| 20260505002719 | 64 | 179 | 1.0 | 6.0 | 0.00 | 0.00 | 0.00 | 46 | 1006.4 |
| 20260505002217 | 64 | 134 | 1.0 | 2.0 | 0.00 | 0.00 | 0.00 | 45 | 1006.2 |
| 20260505001714 | 64 | 187 | 3.0 | 9.0 | 0.00 | 0.00 | 0.00 | 44 | 1006.3 |
| 20260505001212 | 65 | 225 | 2.0 | 5.0 | 0.00 | 0.00 | 0.00 | 43 | 1006.1 |
| 20260505000708 | 64 | 123 | 1.0 | 5.0 | 0.00 | 0.00 | 0.00 | 44 | 1006.3 |
| 20260505000206 | 65 | 156 | 2.0 | 4.0 | 0.00 | 0.00 | 0.00 | 43 | 1006.2 |
| 20260504235702 | 65 | 138 | 1.0 | 8.0 | 0.00 | 0.00 | 0.00 | 43 | 1006.1 |
| 20260504235158 | 66 | 140 | 3.0 | 6.0 | 0.00 | 0.00 | 0.00 | 42 | 1006.1 |
| 20260504234656 | 66 | 174 | 3.0 | 7.0 | 0.00 | 0.00 | 0.00 | 42 | 1006.1 |
| 20260504234153 | 66 | 138 | 3.0 | 7.0 | 0.00 | 0.00 | 0.00 | 40 | 1006.1 |
| 20260504233649 | 67 | 84 | 2.0 | 5.0 | 0.00 | 0.00 | 0.00 | 40 | 1006.0 |
| 20260504233145 | 67 | 194 | 3.0 | 9.0 | 0.00 | 0.00 | 0.00 | 39 | 1005.8 |
| 20260504232643 | 67 | 134 | 3.0 | 8.0 | 0.00 | 0.00 | 0.00 | 40 | 1005.9 |
| 20260504232140 | 68 | 138 | 3.0 | 11.0 | 0.00 | 0.00 | 0.00 | 38 | 1005.7 |
| 20260504231636 | 68 | 101 | 3.0 | 5.0 | 0.00 | 0.00 | 0.00 | 38 | 1005.9 |
| 20260504231133 | 69 | 142 | 2.0 | 9.0 | 0.00 | 0.00 | 0.00 | 38 | 1005.8 |
| 20260504230629 | 69 | 212 | 3.0 | 11.0 | 0.00 | 0.00 | 0.00 | 38 | 1005.7 |
| 20260504230128 | 69 | 141 | 5.0 | 7.0 | 0.00 | 0.00 | 0.00 | 36 | 1005.6 |
| 20260504225626 | 69 | 131 | 2.0 | 6.0 | 0.00 | 0.00 | 0.00 | 36 | 1005.7 |
| 20260504225121 | 69 | 315 | 2.0 | 7.0 | 0.00 | 0.00 | 0.00 | 35 | 1005.9 |
| 20260504224618 | 69 | 182 | 3.0 | 9.0 | 0.00 | 0.00 | 0.00 | 36 | 1005.6 |
| 20260504224115 | 69 | 234 | 3.0 | 10.0 | 0.00 | 0.00 | 0.00 | 36 | 1005.8 |
| 20260504223612 | 70 | 257 | 2.0 | 11.0 | 0.00 | 0.00 | 0.00 | 37 | 1005.8 |
| 20260504223108 | 71 | 152 | 1.0 | 7.0 | 0.00 | 0.00 | 0.00 | 38 | 1005.7 |
| 20260504222605 | 71 | 165 | 3.0 | 4.0 | 0.00 | 0.00 | 0.00 | 34 | 1005.9 |
| 20260504222102 | 72 | 180 | 4.0 | 6.0 | 0.00 | 0.00 | 0.00 | 32 | 1005.8 |
| 20260504221559 | 71 | 202 | 3.0 | 7.0 | 0.00 | 0.00 | 0.00 | 31 | 1005.5 |
| 20260504221056 | 72 | 221 | 3.0 | 12.0 | 0.00 | 0.00 | 0.00 | 29 | 1005.8 |
| 20260504220553 | 71 | 249 | 3.0 | 13.0 | 0.00 | 0.00 | 0.00 | 29 | 1005.7 |
| 20260504220050 | 71 | 234 | 7.0 | 10.0 | 0.00 | 0.00 | 0.00 | 30 | 1005.6 |
| 20260504215546 | 72 | 132 | 7.0 | 13.0 | 0.00 | 0.00 | 0.00 | 31 | 1005.5 |
| 20260504215044 | 72 | 219 | 6.0 | 11.0 | 0.00 | 0.00 | 0.00 | 29 | 1005.7 |
| 20260504214539 | 72 | 206 | 11.0 | 11.0 | 0.00 | 0.00 | 0.00 | 30 | 1005.8 |
| 20260504214036 | 72 | 189 | 8.0 | 12.0 | 0.00 | 0.00 | 0.00 | 31 | 1005.9 |
| 20260504213532 | 71 | 233 | 7.0 | 15.0 | 0.00 | 0.00 | 0.00 | 31 | 1005.8 |
| 20260504213030 | 71 | 211 | 9.0 | 9.0 | 0.00 | 0.00 | 0.00 | 32 | 1005.7 |
| 20260504212525 | 71 | 249 | 6.0 | 10.0 | 0.00 | 0.00 | 0.00 | 31 | 1005.6 |
| 20260504212023 | 71 | 157 | 2.0 | 13.0 | 0.00 | 0.00 | 0.00 | 33 | 1005.9 |
| 20260504211520 | 71 | 125 | 4.0 | 12.0 | 0.00 | 0.00 | 0.00 | 34 | 1005.9 |
| 20260504211017 | 71 | 237 | 6.0 | 14.0 | 0.00 | 0.00 | 0.00 | 31 | 1006.3 |
| 20260504210514 | 71 | 251 | 8.0 | 9.0 | 0.00 | 0.00 | 0.00 | 32 | 1006.0 |
| 20260504210011 | 70 | 196 | 5.0 | 16.0 | 0.00 | 0.00 | 0.00 | 32 | 1005.9 |
| 20260504205509 | 71 | 163 | 6.0 | 12.0 | 0.00 | 0.00 | 0.00 | 32 | 1006.1 |
| 20260504205006 | 72 | 273 | 4.0 | 8.0 | 0.00 | 0.00 | 0.00 | 32 | 1006.0 |
| 20260504204504 | 69 | 216 | 6.0 | 12.0 | 0.00 | 0.00 | 0.00 | 33 | 1006.2 |
| 20260504204003 | 70 | 94 | 3.0 | 9.0 | 0.00 | 0.00 | 0.00 | 32 | 1006.1 |
| 20260504203501 | 70 | 161 | 5.0 | 13.0 | 0.00 | 0.00 | 0.00 | 33 | 1006.4 |
| 20260504202956 | 71 | 247 | 3.0 | 10.0 | 0.00 | 0.00 | 0.00 | 33 | 1006.2 |
| 20260504202453 | 69 | 247 | 6.0 | 15.0 | 0.00 | 0.00 | 0.00 | 35 | 1006.6 |
| 20260504201950 | 68 | 259 | 3.0 | 12.0 | 0.00 | 0.00 | 0.00 | 37 | 1006.6 |
| 20260504201447 | 68 | 160 | 7.0 | 19.0 | 0.00 | 0.00 | 0.00 | 35 | 1006.5 |
| 20260504200945 | 70 | 191 | 2.0 | 12.0 | 0.00 | 0.00 | 0.00 | 35 | 1006.5 |
| 20260504200441 | 70 | 250 | 3.0 | 11.0 | 0.00 | 0.00 | 0.00 | 36 | 1006.5 |
| 20260504195938 | 68 | 229 | 5.0 | 10.0 | 0.00 | 0.00 | 0.00 | 36 | 1006.9 |
| 20260504195434 | 69 | 234 | 5.0 | 16.0 | 0.00 | 0.00 | 0.00 | 35 | 1006.9 |
| 20260504194931 | 70 | 162 | 5.0 | 11.0 | 0.00 | 0.00 | 0.00 | 34 | 1006.9 |
| 20260504194427 | 69 | 219 | 10.0 | 19.0 | 0.00 | 0.00 | 0.00 | 34 | 1007.0 |
| 20260504193923 | 70 | 227 | 4.0 | 7.0 | 0.00 | 0.00 | 0.00 | 37 | 1007.1 |
| 20260504193420 | 71 | 191 | 9.0 | 10.0 | 0.00 | 0.00 | 0.00 | 33 | 1007.1 |
| 20260504192919 | 70 | 171 | 4.0 | 11.0 | 0.00 | 0.00 | 0.00 | 36 | 1007.2 |
| 20260504192415 | 70 | 226 | 7.0 | 13.0 | 0.00 | 0.00 | 0.00 | 39 | 1007.3 |
| 20260504191915 | 69 | 184 | 4.0 | 12.0 | 0.00 | 0.00 | 0.00 | 35 | 1007.3 |
| 20260504191412 | 69 | 213 | 4.0 | 9.0 | 0.00 | 0.00 | 0.00 | 37 | 1007.2 |
| 20260504190907 | 69 | 207 | 3.0 | 10.0 | 0.00 | 0.00 | 0.00 | 36 | 1007.3 |
| 20260504190403 | 70 | 205 | 3.0 | 14.0 | 0.00 | 0.00 | 0.00 | 39 | 1007.2 |
| 20260504185900 | 68 | 251 | 5.0 | 11.0 | 0.00 | 0.00 | 0.00 | 37 | 1007.3 |
| 20260504185357 | 69 | 189 | 3.0 | 14.0 | 0.00 | 0.00 | 0.00 | 36 | 1007.4 |
| 20260504184853 | 68 | 236 | 11.0 | 21.0 | 0.00 | 0.00 | 0.00 | 37 | 1007.5 |
| 20260504184349 | 69 | 99 | 3.0 | 10.0 | 0.00 | 0.00 | 0.00 | 36 | 1007.3 |
| 20260504183845 | 68 | 254 | 18.0 | 21.0 | 0.00 | 0.00 | 0.00 | 36 | 1007.5 |
| 20260504183343 | 68 | 240 | 11.0 | 19.0 | 0.00 | 0.00 | 0.00 | 36 | 1007.6 |
| 20260504182840 | 69 | 188 | 4.0 | 18.0 | 0.00 | 0.00 | 0.00 | 38 | 1007.8 |
| 20260504182337 | 69 | 258 | 14.0 | 14.0 | 0.00 | 0.00 | 0.00 | 36 | 1007.5 |
| 20260504181834 | 68 | 231 | 12.0 | 22.0 | 0.00 | 0.00 | 0.00 | 37 | 1007.6 |
| 20260504181331 | 68 | 210 | 5.0 | 13.0 | 0.00 | 0.00 | 0.00 | 38 | 1007.5 |
| 20260504180830 | 68 | 173 | 11.0 | 19.0 | 0.00 | 0.00 | 0.00 | 38 | 1007.7 |
| 20260504180328 | 67 | 248 | 12.0 | 15.0 | 0.00 | 0.00 | 0.00 | 38 | 1007.8 |
| 20260504175826 | 66 | 255 | 4.0 | 20.0 | 0.00 | 0.00 | 0.00 | 40 | 1007.9 |
| 20260504175323 | 68 | 246 | 2.0 | 13.0 | 0.00 | 0.00 | 0.00 | 39 | 1007.8 |
| 20260504174821 | 68 | 223 | 7.0 | 15.0 | 0.00 | 0.00 | 0.00 | 37 | 1007.9 |
| 20260504174318 | 68 | 163 | 6.0 | 19.0 | 0.00 | 0.00 | 0.00 | 37 | 1008.1 |
| 20260504173815 | 68 | 267 | 6.0 | 12.0 | 0.00 | 0.00 | 0.00 | 37 | 1007.9 |
| 20260504173311 | 67 | 137 | 5.0 | 12.0 | 0.00 | 0.00 | 0.00 | 41 | 1007.7 |
| 20260504172809 | 66 | 138 | 6.0 | 14.0 | 0.00 | 0.00 | 0.00 | 40 | 1007.9 |
| 20260504172305 | 66 | 227 | 4.0 | 23.0 | 0.00 | 0.00 | 0.00 | 41 | 1007.9 |
| 20260504171801 | 67 | 207 | 8.0 | 18.0 | 0.00 | 0.00 | 0.00 | 39 | 1008.0 |
| 20260504171258 | 66 | 223 | 4.0 | 17.0 | 0.00 | 0.00 | 0.00 | 40 | 1008.0 |
| 20260504170755 | 66 | 248 | 5.0 | 12.0 | 0.00 | 0.00 | 0.00 | 40 | 1007.9 |
| 20260504170252 | 66 | 236 | 7.0 | 15.0 | 0.00 | 0.00 | 0.00 | 39 | 1008.2 |
| 20260504160211 | 64 | 241 | 12.0 | 12.0 | 0.00 | 0.00 | 0.00 | 41 | 1008.9 |
| 20260504151139 | 61 | 197 | 5.0 | 16.0 | 0.00 | 0.00 | 0.00 | 42 | 1009.3 |
| 20260504150636 | 61 | 232 | 10.0 | 10.0 | 0.00 | 0.00 | 0.00 | 42 | 1009.2 |
| 20260504150133 | 59 | 208 | 3.0 | 17.0 | 0.00 | 0.00 | 0.00 | 43 | 1009.3 |
| 20260504141102 | 57 | 184 | 3.0 | 15.0 | 0.00 | 0.00 | 0.00 | 47 | 1009.8 |
| 20260504140558 | 57 | 95 | 4.0 | 12.0 | 0.00 | 0.00 | 0.00 | 46 | 1010.0 |
| 20260504130522 | 51 | 155 | 5.0 | 9.0 | 0.00 | 0.00 | 0.00 | 52 | 1010.4 |
| 20260504110410 | 44 | 114 | 1.0 | 5.0 | 0.00 | 0.00 | 0.00 | 65 | 1010.6 |
| 20260504100326 | 42 | 144 | 2.0 | 5.0 | 0.00 | 0.00 | 0.00 | 66 | 1010.5 |
| 20260504081720 | 41 | 115 | 1.0 | 2.0 | 0.00 | 0.00 | 0.00 | 68 | 1010.7 |
| 20260504081216 | 42 | 130 | 2.0 | 3.0 | 0.00 | 0.00 | 0.00 | 67 | 1010.6 |
| 20260504080712 | 42 | 119 | 2.0 | 2.0 | 0.00 | 0.00 | 0.00 | 67 | 1010.7 |
| 20260504080209 | 41 | 135 | 2.0 | 5.0 | 0.00 | 0.00 | 0.00 | 68 | 1010.7 |
| 20260504070137 | 43 | 143 | 4.0 | 6.0 | 0.00 | 0.00 | 0.00 | 62 | 1010.8 |
| 20260504050525 | 40 | 103 | 0.0 | 2.0 | 0.00 | 0.00 | 0.00 | 80 | 1011.1 |
| 20260504050022 | 40 | 83 | 1.0 | 2.0 | 0.00 | 0.00 | 0.00 | 78 | 1011.0 |
| 20260504045519 | 40 | 100 | 1.0 | 2.0 | 0.00 | 0.00 | 0.00 | 79 | 1011.0 |
| 20260504045014 | 40 | 100 | 1.0 | 2.0 | 0.00 | 0.00 | 0.00 | 80 | 1011.0 |
| 20260504044512 | 40 | 76 | 0.0 | 2.0 | 0.00 | 0.00 | 0.00 | 80 | 1010.8 |
| 20260504044009 | 41 | 77 | 1.0 | 1.0 | 0.00 | 0.00 | 0.00 | 77 | 1010.9 |
| 20260504043506 | 41 | 95 | 0.0 | 2.0 | 0.00 | 0.00 | 0.00 | 76 | 1010.9 |
| 20260504043003 | 41 | 117 | 0.0 | 2.0 | 0.00 | 0.00 | 0.00 | 74 | 1010.8 |
| 20260504042500 | 42 | 130 | 0.0 | 2.0 | 0.00 | 0.00 | 0.00 | 74 | 1010.9 |
| 20260504041957 | 42 | 124 | 1.0 | 2.0 | 0.00 | 0.00 | 0.00 | 74 | 1011.0 |
| 20260504041453 | 42 | 78 | 2.0 | 2.0 | 0.00 | 0.00 | 0.00 | 74 | 1011.1 |
| 20260504040948 | 43 | 95 | 1.0 | 2.0 | 0.00 | 0.00 | 0.00 | 72 | 1010.8 |
| 20260504040447 | 43 | 94 | 0.0 | 2.0 | 0.00 | 0.00 | 0.00 | 70 | 1010.8 |
| 20260504035942 | 44 | 89 | 1.0 | 2.0 | 0.00 | 0.00 | 0.00 | 68 | 1010.7 |
| 20260504035440 | 44 | 104 | 0.0 | 2.0 | 0.00 | 0.00 | 0.00 | 67 | 1011.0 |
| 20260504034936 | 45 | 126 | 0.0 | 1.0 | 0.00 | 0.00 | 0.00 | 69 | 1010.8 |
| 20260504034434 | 45 | 113 | 0.0 | 1.0 | 0.00 | 0.00 | 0.00 | 68 | 1011.2 |
| 20260504033931 | 45 | 93 | 1.0 | 2.0 | 0.00 | 0.00 | 0.00 | 69 | 1011.0 |
| 20260504033429 | 46 | 73 | 1.0 | 2.0 | 0.00 | 0.00 | 0.00 | 65 | 1011.0 |
| 20260504032926 | 46 | 122 | 2.0 | 2.0 | 0.00 | 0.00 | 0.00 | 64 | 1011.0 |
| 20260504032422 | 46 | 142 | 1.0 | 2.0 | 0.00 | 0.00 | 0.00 | 64 | 1011.0 |
| 20260504031919 | 46 | 103 | 0.0 | 0.0 | 0.00 | 0.00 | 0.00 | 65 | 1011.1 |
| 20260504031417 | 47 | 108 | 2.0 | 2.0 | 0.00 | 0.00 | 0.00 | 59 | 1010.9 |
| 20260504030913 | 46 | 116 | 2.0 | 2.0 | 0.00 | 0.00 | 0.00 | 63 | 1010.8 |
| 20260504030410 | 47 | 89 | 0.0 | 2.0 | 0.00 | 0.00 | 0.00 | 61 | 1010.8 |
| 20260504025906 | 46 | 109 | 2.0 | 2.0 | 0.00 | 0.00 | 0.00 | 60 | 1011.1 |
| 20260504025403 | 46 | 111 | 1.0 | 2.0 | 0.00 | 0.00 | 0.00 | 61 | 1011.1 |
| 20260504024900 | 46 | 102 | 1.0 | 2.0 | 0.00 | 0.00 | 0.00 | 64 | 1011.1 |
| 20260504024356 | 47 | 77 | 1.0 | 2.0 | 0.00 | 0.00 | 0.00 | 63 | 1011.3 |
| 20260504023854 | 48 | 41 | 1.0 | 2.0 | 0.00 | 0.00 | 0.00 | 63 | 1011.3 |
| 20260504023350 | 49 | 116 | 0.0 | 2.0 | 0.00 | 0.00 | 0.00 | 54 | 1011.2 |
| 20260504022845 | 48 | 131 | 3.0 | 3.0 | 0.00 | 0.00 | 0.00 | 55 | 1011.2 |
| 20260504022343 | 48 | 143 | 2.0 | 2.0 | 0.00 | 0.00 | 0.00 | 56 | 1011.3 |
| 20260504021839 | 48 | 113 | 1.0 | 4.0 | 0.00 | 0.00 | 0.00 | 58 | 1011.4 |
| 20260504021337 | 48 | 93 | 2.0 | 3.0 | 0.00 | 0.00 | 0.00 | 54 | 1011.2 |
| 20260504020834 | 48 | 101 | 2.0 | 3.0 | 0.00 | 0.00 | 0.00 | 53 | 1011.1 |
| 20260504020330 | 49 | 51 | 2.0 | 2.0 | 0.00 | 0.00 | 0.00 | 57 | 1011.3 |
| 20260504015827 | 49 | 26 | 2.0 | 2.0 | 0.00 | 0.00 | 0.00 | 52 | 1011.1 |
| 20260504015323 | 48 | 101 | 2.0 | 3.0 | 0.00 | 0.00 | 0.00 | 52 | 1011.1 |
| 20260504014819 | 48 | 109 | 1.0 | 2.0 | 0.00 | 0.00 | 0.00 | 52 | 1011.1 |
| 20260504014315 | 48 | 112 | 2.0 | 2.0 | 0.00 | 0.00 | 0.00 | 52 | 1011.0 |
| 20260504013813 | 49 | 97 | 1.0 | 1.0 | 0.00 | 0.00 | 0.00 | 51 | 1011.1 |
| 20260504013311 | 49 | 124 | 0.0 | 1.0 | 0.00 | 0.00 | 0.00 | 50 | 1011.1 |
| 20260504012807 | 50 | 229 | 0.0 | 4.0 | 0.00 | 0.00 | 0.00 | 50 | 1010.9 |
| 20260504012305 | 49 | 119 | 2.0 | 3.0 | 0.00 | 0.00 | 0.00 | 50 | 1011.1 |
| 20260504011802 | 50 | 112 | 0.0 | 2.0 | 0.00 | 0.00 | 0.00 | 50 | 1010.9 |